Port Lavaca, TX

1:51 PM CDT on July 27, 2017 (GMT -0500)
Port Lavaca

Weather History for KPKV - November, 2012

Change the Weather History Date:

Monday, November 26, 2012

  Actual Average (KVCT) Record (KVCT)
Temperature  
Mean Temperature 68 °F -  
Max Temperature 80 °F 72 °F 88 °F (1965)
Min Temperature 57 °F 54 °F 33 °F (1992)
Cooling Degree Days 4    
Growing Degree Days 18 (Base 50)    
Moisture  
Dew Point 64 °F    
Average Humidity 85    
Maximum Humidity 100    
Minimum Humidity 61    
Precipitation  
Precipitation 0.00 in - - ()
Sea Level Pressure  
Sea Level Pressure 29.99 in    
Wind  
Wind Speed 7 mph (SSW)    
Max Wind Speed 21 mph    
Max Gust Speed 28 mph    
Visibility 7 miles    
Events Fog    
Averages and records for this station are not official NWS values.
T = Trace of Precipitation, MM = Missing Value Source: NWS Daily Summary

Daily Weather History Graph

Daily Weather History Graph

Search for Another Location

Airport or City:

Trip Planner

Search our weather history database for the weather conditions in past years. The results will help you decide how hot, cold, wet, or windy it might be!

Date:

Astronomy

Nov. 26, 2012 Rise Set
Actual Time 6:58 AM CST 5:29 PM CST
Civil Twilight 6:33 AM CST 5:55 PM CST
Nautical Twilight 6:04 AM CST 6:24 PM CST
Astronomical Twilight 5:35 AM CST 6:52 PM CST
Moon 4:18 PM CST (11/26) 5:14 AM CST (11/26)
Length of Visible Light 11h 21m
Length of Day
10h 31m
Waxing Gibbous, 97% of the Moon is Illuminated
Nov 26
Waxing Gibbous
Nov 28
Full
Dec 6
Last Quarter
Dec 13
New
Dec 19
First Quarter

Hourly Weather History & Observations

Time (CST) Temp. Heat Index Dew Point Humidity Pressure Visibility Wind Dir Wind Speed Gust Speed Precip Events Conditions
12:15 AM 64.4 °F - 62.6 °F 94% 29.97 in 5.0 mi South 4.6 mph - N/A   Clear
12:35 AM 64.4 °F - 62.6 °F 94% 29.96 in 1.5 mi South 3.5 mph - N/A   Mist
12:55 AM 62.6 °F - 62.6 °F 100% 29.96 in 0.5 mi South 4.6 mph - N/A Fog Fog
1:15 AM 62.6 °F - 60.8 °F 94% 29.96 in 0.5 mi South 4.6 mph - N/A Fog Fog
1:35 AM 62.6 °F - 60.8 °F 94% 29.95 in 3.0 mi SSW 4.6 mph - N/A   Clear
1:55 AM 62.6 °F - 60.8 °F 94% 29.95 in 10.0 mi SSW 5.8 mph - N/A   Clear
2:15 AM 62.6 °F - 60.8 °F 94% 29.95 in 10.0 mi South 3.5 mph - N/A   Clear
2:35 AM 62.6 °F - 60.8 °F 94% 29.95 in 2.5 mi SSW 3.5 mph - N/A   Clear
2:55 AM 62.6 °F - 60.8 °F 94% 29.94 in 5.0 mi SSW 4.6 mph - N/A   Clear
3:15 AM 62.6 °F - 60.8 °F 94% 29.94 in 5.0 mi SSW 4.6 mph - N/A   Clear
3:35 AM 62.6 °F - 60.8 °F 94% 29.94 in 4.0 mi South 5.8 mph - N/A   Clear
3:55 AM 62.6 °F - 60.8 °F 94% 29.94 in 4.0 mi SSW 4.6 mph - N/A   Clear
4:15 AM 62.6 °F - 60.8 °F 94% 29.94 in 0.8 mi SSW 3.5 mph - N/A   Mist
4:35 AM 62.6 °F - 60.8 °F 94% 29.94 in 0.2 mi SSW 3.5 mph - N/A Fog Fog
4:55 AM 60.8 °F - 60.8 °F 100% 29.94 in 0.2 mi South 3.5 mph - N/A Fog Fog
5:15 AM 57.2 °F - 55.4 °F 94% 29.95 in 0.2 mi Calm Calm - N/A Fog Fog
5:35 AM 57.2 °F - 55.4 °F 94% 29.96 in 0.2 mi Calm Calm - N/A Fog Fog
5:55 AM 59.0 °F - 57.2 °F 94% 29.96 in 0.2 mi Calm Calm - N/A Fog Fog
6:15 AM 59.0 °F - 57.2 °F 94% 29.97 in 0.2 mi Calm Calm - N/A Fog Fog
6:35 AM 59.0 °F - 57.2 °F 94% 29.98 in 0.5 mi Calm Calm - N/A Fog Fog
6:55 AM 59.0 °F - 57.2 °F 94% 29.98 in 0.2 mi Calm Calm - N/A Fog Fog
7:15 AM 59.0 °F - 57.2 °F 94% 29.98 in 0.2 mi Calm Calm - N/A Fog Fog
7:35 AM 59.0 °F - 59.0 °F 100% 29.99 in 0.2 mi Calm Calm - N/A Fog Fog
7:55 AM 60.8 °F - 60.8 °F 100% 30.00 in 0.2 mi Calm Calm - N/A Fog Fog
8:15 AM 62.6 °F - 62.6 °F 100% 30.00 in 0.5 mi Calm Calm - N/A Fog Fog
8:35 AM 64.4 °F - 64.4 °F 100% 30.01 in 0.5 mi South 3.5 mph - N/A Fog Fog
8:55 AM 68.0 °F - 68.0 °F 100% 30.01 in 7.0 mi South 6.9 mph - N/A   Scattered Clouds
9:15 AM 69.8 °F - 68.0 °F 94% 30.01 in 10.0 mi South 12.7 mph - N/A   Clear
9:35 AM 69.8 °F - 69.8 °F 100% 30.02 in 10.0 mi South 13.8 mph - N/A   Clear
9:55 AM 71.6 °F - 69.8 °F 94% 30.02 in 10.0 mi SSW 17.3 mph - N/A   Scattered Clouds
10:15 AM 73.4 °F - 68.0 °F 83% 30.01 in 10.0 mi SSW 19.6 mph 23.0 mph N/A   Scattered Clouds
10:35 AM 77.0 °F - 68.0 °F 74% 30.01 in 10.0 mi South 16.1 mph - N/A   Scattered Clouds
10:55 AM 78.8 °F - 68.0 °F 69% 30.02 in 10.0 mi SSW 18.4 mph 23.0 mph N/A   Scattered Clouds
11:15 AM 78.8 °F - 68.0 °F 69% 30.00 in 10.0 mi SSW 17.3 mph 21.9 mph N/A   Scattered Clouds
11:35 AM 78.8 °F - 68.0 °F 69% 30.00 in 10.0 mi South 18.4 mph 23.0 mph N/A   Scattered Clouds
11:55 AM 78.8 °F - 66.2 °F 65% 30.00 in 10.0 mi SSW 19.6 mph 25.3 mph N/A   Scattered Clouds
12:15 PM 78.8 °F - 66.2 °F 65% 29.99 in 10.0 mi South 18.4 mph 25.3 mph N/A   Mostly Cloudy
12:35 PM 80.6 °F 82.7 °F 66.2 °F 61% 29.98 in 10.0 mi South 19.6 mph 25.3 mph N/A   Mostly Cloudy
12:55 PM 80.6 °F 82.7 °F 66.2 °F 61% 29.97 in 10.0 mi South 20.7 mph 27.6 mph N/A   Mostly Cloudy
1:15 PM 78.8 °F - 66.2 °F 65% 29.97 in 10.0 mi South 19.6 mph 24.2 mph N/A   Mostly Cloudy
1:35 PM 78.8 °F - 64.4 °F 61% 29.96 in 10.0 mi South 19.6 mph 26.5 mph N/A   Mostly Cloudy
1:55 PM 78.8 °F - 64.4 °F 61% 29.96 in 10.0 mi South 19.6 mph 24.2 mph N/A   Scattered Clouds
2:15 PM 78.8 °F - 66.2 °F 65% 29.96 in 10.0 mi South 20.7 mph 27.6 mph N/A   Scattered Clouds
2:35 PM 77.0 °F - 66.2 °F 69% 29.96 in 10.0 mi South 20.7 mph 25.3 mph N/A   Scattered Clouds
2:55 PM 77.0 °F - 64.4 °F 65% 29.95 in 10.0 mi South 20.7 mph - N/A   Clear
3:15 PM 77.0 °F - 66.2 °F 69% 29.95 in 10.0 mi South 17.3 mph 21.9 mph N/A   Clear
3:35 PM 75.2 °F - 66.2 °F 73% 29.95 in 10.0 mi South 12.7 mph 19.6 mph N/A   Clear
3:55 PM 77.0 °F - 66.2 °F 69% 29.95 in 10.0 mi South 12.7 mph - N/A   Clear
4:15 PM 75.2 °F - 66.2 °F 73% 29.95 in 10.0 mi South 17.3 mph 20.7 mph N/A   Clear
4:55 PM 73.4 °F - 66.2 °F 78% 29.97 in 10.0 mi SSW 12.7 mph - N/A   Clear
5:15 PM 73.4 °F - 66.2 °F 78% 29.98 in 10.0 mi SSW 11.5 mph - N/A   Clear
5:35 PM 71.6 °F - 66.2 °F 83% 29.98 in 10.0 mi SSW 9.2 mph - N/A   Clear
5:55 PM 71.6 °F - 66.2 °F 83% 29.99 in 10.0 mi SSW 9.2 mph - N/A   Clear
6:15 PM 71.6 °F - 66.2 °F 83% 29.99 in 10.0 mi SSW 8.1 mph - N/A   Clear
6:35 PM 71.6 °F - 66.2 °F 83% 30.00 in 10.0 mi SSW 6.9 mph - N/A   Clear
6:55 PM 71.6 °F - 66.2 °F 83% 30.00 in 10.0 mi SSW 6.9 mph - N/A   Clear
7:15 PM 71.6 °F - 66.2 °F 83% 30.00 in 10.0 mi SSW 6.9 mph - N/A   Clear
7:35 PM 71.6 °F - 66.2 °F 83% 30.01 in 10.0 mi SSW 6.9 mph - N/A   Clear
7:55 PM 69.8 °F - 66.2 °F 88% 30.02 in 10.0 mi South 5.8 mph - N/A   Clear
8:15 PM 69.8 °F - 66.2 °F 88% 30.02 in 10.0 mi SSW 5.8 mph - N/A   Clear
8:35 PM 69.8 °F - 66.2 °F 88% 30.04 in 10.0 mi SW 4.6 mph - N/A   Clear
8:55 PM 69.8 °F - 66.2 °F 88% 30.05 in 10.0 mi SSW 6.9 mph - N/A   Clear
9:35 PM 69.8 °F - 66.2 °F 88% 30.06 in 10.0 mi SW 5.8 mph - N/A   Clear
9:55 PM 69.8 °F - 66.2 °F 88% 30.06 in 10.0 mi SSW 5.8 mph - N/A   Clear
10:15 PM 69.8 °F - 66.2 °F 88% 30.07 in 10.0 mi SSW 6.9 mph - N/A   Clear
10:35 PM 69.8 °F - 66.2 °F 88% 30.07 in 10.0 mi SW 8.1 mph - N/A   Clear
10:55 PM 69.8 °F - 66.2 °F 88% 30.07 in 10.0 mi SW 8.1 mph - N/A   Clear
11:15 PM 69.8 °F - 66.2 °F 88% 30.07 in 10.0 mi West 8.1 mph - N/A   Clear
11:35 PM 69.8 °F - 64.4 °F 83% 30.08 in 10.0 mi West 11.5 mph - N/A   Clear
11:55 PM 71.6 °F - 62.6 °F 73% 30.08 in 10.0 mi WNW 6.9 mph - N/A   Clear